SL-14 DEB, 45318

Orbit data source: Space-Track

SL-14 DEB, 45318 is space debris in LEO originally from a launch on Thu, 15 Aug 1991 UTC launched from the Plesetsk Missile And Space Complex (PKMTR). Debris objects in space refer to the collection of defunct objects orbiting the Earth. Examples of debris include non-operational satellites, rocket bodies, and fragments generated from explosions, collisions, or faulty payload assembly.

Loading next visibility...
Identifier
45318, 1991-056BG
Orbit
LEO
Country
Flag of CISCIS
Related business
Manufacturer
Unknown
Mission
Spacecraft
Bus & Motor
Unknown
Mass
Unknown
Launch date (UTC)
1991-08-15 (35 years ago)
Launch vehicle
Unknown
Launch site
Plesetsk Missile And Space Complex (PKMTR)
Object type
Payload
Rocket body
Debris
Shape & HBR
Unknown shape, 0.2 m
Radar Cross Section
Small (<0.1 m²)

Expand to show TLE details & history
Last TLE update: 10 hours ago

TLE from 10 hours ago
0 SL-14 DEB
1 45318U 91056BG  26128.11582303  .00000271  00000-0  64621-3 0  9996
2 45318  82.5698 165.5170 0013430 159.8601 200.3056 13.19699591298285
Epoch: 2026-05-08T02:46Z
TLE epoch observation values (Epoch: 2026-05-08T02:46:47.109Z)
Latitude
0.00001°
Longitude
-102.13152°
Altitude
1,198.21 km
Speed
7.25 km/s
True Right ascension
11h 02m 04s
True Declination
0° 00' 00"
Sunlit
Object was in daylight at epoch
Visualization orbit readout
Latitude
Unknown
Longitude
Unknown
Altitude
Unknown
Speed
Unknown
Apparent Right ascension
Unknown
Apparent Declination
Unknown
Sunlit
N/A
Visualization observer readout
Local Sidereal Time
21:02:11
Azimuth
Unknown
Elevation
Unknown
Doppler factor
Unknown
Orbital elements
Apogee altitude
1,193.263 km
Perigee altitude
1,172.953 km
Semi-major axis
7,561.245 km
Eccentricity
0.00134
Inclination
82.5698°
RAAN
165.517°
Arg. of periapsis
159.8601°
True anomaly
200.25228°
Mean anomaly
200.3056°
Eccentric anomaly
200.27893°
Mean motion
3.30106 °/min
Orbital period
109.06 mins
BSTAR
0.00064621
Loading maneuver chart data...
Computing Atmospheric mass density...
Loading historical data...
Loading historical data...
Loading historical data...
Loading historical data...
Loading historical data...
Loading historical data...
Loading historical data...

Documentation

Showing up to 5 results
|